CW3442 Weather Reports


Display with metric or nautical units.
time (UTC)temp
F
wind
direction
speed
MPH
gust
MPH
rain 1hr
in
rain 24hr
in
rain mn
in
humidity
%
barometer
mb
20260503020328 44 286 0.0 0.0 0.00 0.00 0.00 69 787.9
20260503013339 45 286 0.0 0.0 0.00 0.00 0.00 67 787.9
20260503010337 45 286 0.0 0.0 0.00 0.00 0.00 67 787.9
20260503003318 46 286 0.0 0.0 0.00 0.00 0.00 66 787.8
20260503000329 47 250 0.0 0.0 0.00 0.00 0.00 64 787.8
20260502233326 47 300 0.0 0.0 0.00 0.00 0.00 59 787.7
20260502230342 48 300 0.0 0.0 0.00 0.00 0.00 56 787.7
20260502223330 48 236 0.0 0.0 0.00 0.00 0.00 55 787.7
20260502220341 50 217 0.0 0.0 0.00 0.00 0.00 51 787.7
20260502213337 50 282 0.0 0.0 0.00 0.00 0.00 54 787.7
20260502210330 50 244 0.0 0.0 0.00 0.00 0.00 59 787.7
20260502203330 48 265 0.0 0.0 0.00 0.00 0.00 62 787.7
20260502200346 51 268 0.0 0.0 0.00 0.00 0.00 52 787.7
20260502193336 52 221 0.0 0.0 0.00 0.00 0.00 52 787.7
20260502190326 51 248 0.0 0.0 0.00 0.00 0.00 53 787.7
20260502183339 49 277 0.0 0.0 0.00 0.00 0.00 60 787.7
20260502180337 50 216 0.0 0.0 0.00 0.00 0.00 62 787.7
20260502170332 46 213 0.0 0.0 0.00 0.00 0.00 71 787.8
20260502163335 47 329 0.0 0.0 0.00 0.00 0.00 72 787.8
20260502160323 45 107 0.0 0.0 0.00 0.00 0.00 74 787.9
20260502150345 43 117 0.0 0.0 0.00 0.00 0.00 77 788.0
20260502130325 40 119 0.0 0.0 0.00 0.00 0.00 78 788.1
20260502123331 40 103 0.0 0.0 0.00 0.00 0.00 76 788.1
20260502120326 40 118 0.0 0.0 0.00 0.00 0.00 76 788.1
20260502113322 40 112 0.0 0.0 0.00 0.00 0.00 74 788.1
20260502110325 39 140 0.0 0.0 0.00 0.00 0.00 77 788.0
20260502103404 39 123 0.0 0.0 0.00 0.00 0.00 77 788.0
20260502100324 39 98 0.0 0.0 0.00 0.00 0.00 79 788.0
20260502090331 40 98 0.0 0.0 0.00 0.00 0.00 78 787.9
20260502070323 43 98 0.0 0.0 0.00 0.00 0.00 65 787.8
20260502063337 43 176 0.0 0.0 0.00 0.00 0.00 67 787.8
20260502060337 43 250 0.0 0.0 0.00 0.00 0.00 67 787.8
20260502053402 43 250 0.0 0.0 0.00 0.00 0.00 66 787.8
20260502050340 44 250 0.0 0.0 0.00 0.00 0.00 66 787.8
20260502043400 44 222 0.0 0.0 0.00 0.00 0.00 65 787.7
20260502040341 44 222 0.0 0.0 0.00 0.00 0.00 64 787.7
20260502033324 44 222 0.0 0.0 0.00 0.00 0.00 66 787.7
20260502030327 43 222 0.0 0.0 0.00 0.00 0.00 70 787.8
20260502023334 43 222 0.0 0.0 0.00 0.00 0.00 69 787.8